This demonstration page uses our WeatherBlox Daily Observations layout. Learn more.

Left ArrowRight Arrow

38.88101, -77.10428

Hourly Observations for July 31, 2021

Temp ( °F °C ) Dew Point ( °F °C ) Humidity (%) Winds ( mph kmh ) Pressure ( in mb ) Visibility ( mi km ) Precip ( " mm )
12:52 am 00:52 Mostly Cloudy 75 23.9 56 13.3 52 52 N 7 11 29.98 1015 10 16 N/A
1:52 am 01:52 Mostly Cloudy 76 24.4 54 12.2 47 47 N 12 19 29.99 1016 10 16 N/A
2:52 am 02:52 Mostly Cloudy 73 22.8 54 12.2 51 51 N 13 20 29.99 1016 10 16 N/A
3:52 am 03:52 Partly Cloudy 71 21.7 55 12.8 57 57 NNE 10 17 29.99 1016 10 16 N/A
4:52 am 04:52 Mostly Cloudy 71 21.7 56 13.3 59 59 NNE 8 13 30.00 1016 10 16 N/A
5:52 am 05:52 Cloudy 71 21.7 54 12.2 55 55 NNE 9 15 30.01 1016 10 16 N/A
6:52 am 06:52 Cloudy 70 21.1 54 12.2 57 57 NE 9 15 30.03 1017 10 16 N/A
7:52 am 07:52 Cloudy 70 21.1 56 13.3 61 61 ENE 7 11 30.04 1017 10 16 N/A
8:52 am 08:52 Cloudy 70 21.1 56 13.3 61 61 ENE 7 11 30.04 1017 10 16 N/A
9:52 am 09:52 Cloudy 72 22.2 55 12.8 55 55 E 5 7 30.05 1018 10 16 N/A
10:52 am 10:52 Cloudy 73 22.8 54 12.2 51 51 ENE 5 7 30.06 1018 10 16 N/A
11:52 am 11:52 Cloudy 74 23.3 55 12.8 52 52 ENE 3 6 30.04 1017 10 16 N/A
12:52 pm 12:52 Partly Cloudy 76 24.4 55 12.8 48 48 N N/A 30.01 1016 10 16 N/A
1:52 pm 13:52 Partly Cloudy 78 25.6 55 12.8 45 45 ESE 5 7 30.00 1016 10 16 N/A
2:52 pm 14:52 Mostly Cloudy 80 26.7 58 14.4 47 47 S 8 13 29.98 1015 10 16 N/A
3:52 pm 15:52 Mostly Cloudy 81 27.2 58 14.4 45 45 SSW 7 11 29.96 1015 10 16 N/A
4:52 pm 16:52 Cloudy 81 27.2 59 15 47 47 S 12 19 29.95 1014 10 16 N/A
5:52 pm 17:52 Cloudy 80 26.7 61 16.1 52 52 S 10 17 29.94 1014 10 16 N/A
6:52 pm 18:52 Cloudy 79 26.1 61 16.1 54 54 S 8 13 29.93 1014 10 16 N/A
7:52 pm 19:52 Cloudy 78 25.6 61 16.1 56 56 S 8 13 29.93 1014 10 16 N/A
8:52 pm 20:52 Cloudy 76 24.4 62 16.7 62 62 SE 8 13 29.93 1014 10 16 N/A
9:52 pm 21:52 Cloudy 75 23.9 61 16.1 62 62 SSE 7 11 29.95 1014 10 16 N/A
10:52 pm 22:52 Cloudy 75 23.9 61 16.1 62 62 SSE 8 13 29.95 1014 10 16 N/A
11:52 pm 23:52 Cloudy 74 23.3 62 16.7 67 67 SSE 10 17 29.95 1014 10 16 N/A

Powered by AerisWeather